TimeEST,TemperatureF,Dew PointF,Humidity,Sea Level PressureIn,VisibilityMPH,Wind Direction,Wind SpeedMPH,Gust SpeedMPH,PrecipitationIn,Events,Conditions,WindDirDegrees,DateUTC
12:15 AM,46.6,41.2,81,29.82,10.0,SW,4.6,-,N/A,,Clear,220,2013-02-12 05:15:00
12:35 AM,47.5,43.0,84,29.83,10.0,SSW,6.9,-,N/A,,Clear,210,2013-02-12 05:35:00
12:55 AM,47.1,41.0,79,29.84,10.0,North,4.6,-,N/A,,Clear,350,2013-02-12 05:55:00
1:15 AM,46.0,40.5,81,29.85,10.0,WSW,4.6,-,N/A,,Clear,240,2013-02-12 06:15:00
1:35 AM,44.2,41.4,90,29.85,10.0,Calm,Calm,-,N/A,,Clear,0,2013-02-12 06:35:00
1:55 AM,42.6,40.8,93,29.86,10.0,Calm,Calm,-,N/A,,Clear,0,2013-02-12 06:55:00
2:15 AM,40.5,39.7,97,29.87,10.0,NW,8.1,-,N/A,,Clear,310,2013-02-12 07:15:00
2:55 AM,48.7,28.9,46,29.87,10.0,WNW,8.1,-,N/A,,Clear,300,2013-02-12 07:55:00
3:15 AM,47.3,28.9,49,29.87,10.0,WNW,5.8,-,N/A,,Clear,300,2013-02-12 08:15:00
3:35 AM,41.7,31.6,67,29.87,10.0,West,6.9,-,N/A,,Clear,280,2013-02-12 08:35:00
3:55 AM,41.7,31.3,66,29.89,10.0,West,6.9,-,N/A,,Clear,280,2013-02-12 08:55:00
4:15 AM,47.8,28.2,47,29.90,10.0,West,9.2,17.3,N/A,,Clear,280,2013-02-12 09:15:00
4:35 AM,45.0,28.6,53,29.90,10.0,West,6.9,-,N/A,,Clear,270,2013-02-12 09:35:00
4:55 AM,45.3,27.9,51,29.90,10.0,West,5.8,-,N/A,,Clear,270,2013-02-12 09:55:00
5:15 AM,46.0,27.3,48,29.91,10.0,WSW,5.8,-,N/A,,Clear,240,2013-02-12 10:15:00
5:35 AM,45.0,27.7,51,29.92,10.0,WSW,8.1,-,N/A,,Clear,250,2013-02-12 10:35:00
5:55 AM,44.4,28.0,53,29.92,10.0,SW,4.6,-,N/A,,Clear,230,2013-02-12 10:55:00
6:15 AM,42.6,28.9,58,29.93,10.0,SE,3.5,-,N/A,,Clear,130,2013-02-12 11:15:00
6:35 AM,43.3,28.2,55,29.94,10.0,SW,8.1,-,N/A,,Clear,220,2013-02-12 11:35:00
6:55 AM,45.1,27.5,50,29.94,10.0,WSW,6.9,-,N/A,,Clear,240,2013-02-12 11:55:00
7:15 AM,44.6,28.0,52,29.95,10.0,WSW,3.5,-,N/A,,Clear,240,2013-02-12 12:15:00
7:35 AM,46.9,27.5,47,29.95,10.0,Calm,Calm,-,N/A,,Clear,0,2013-02-12 12:35:00
7:55 AM,47.7,28.4,47,29.96,10.0,West,3.5,-,N/A,,Clear,270,2013-02-12 12:55:00
8:15 AM,47.7,29.3,49,29.96,10.0,Calm,Calm,-,N/A,,Clear,0,2013-02-12 13:15:00
8:35 AM,47.8,32.0,54,29.96,10.0,ESE,4.6,-,N/A,,Clear,120,2013-02-12 13:35:00
8:55 AM,50.0,29.7,46,29.98,10.0,Calm,Calm,-,N/A,,Clear,0,2013-02-12 13:55:00
9:15 AM,50.7,28.8,43,29.99,10.0,Calm,Calm,-,N/A,,Clear,0,2013-02-12 14:15:00
9:35 AM,52.5,27.1,38,29.99,10.0,WSW,3.5,-,N/A,,Clear,250,2013-02-12 14:35:00
9:55 AM,53.1,26.4,36,29.99,10.0,West,4.6,-,N/A,,Clear,270,2013-02-12 14:55:00
10:15 AM,52.9,26.6,36,29.99,10.0,SW,3.5,-,N/A,,Clear,220,2013-02-12 15:15:00
10:35 AM,53.8,26.2,35,29.99,10.0,Calm,Calm,-,N/A,,Clear,0,2013-02-12 15:35:00
10:55 AM,54.7,26.2,33,29.99,10.0,NW,6.9,-,N/A,,Clear,320,2013-02-12 15:55:00
11:15 AM,55.9,25.9,31,29.99,10.0,NW,5.8,-,N/A,,Clear,320,2013-02-12 16:15:00
11:35 AM,55.9,26.2,32,29.99,10.0,South,5.8,-,N/A,,Clear,190,2013-02-12 16:35:00
11:55 AM,56.8,25.7,30,29.99,10.0,NW,5.8,-,N/A,,Clear,310,2013-02-12 16:55:00
12:15 PM,57.7,25.3,29,29.98,10.0,NW,5.8,-,N/A,,Clear,320,2013-02-12 17:15:00
12:35 PM,57.0,25.0,29,29.96,10.0,Calm,Calm,-,N/A,,Clear,0,2013-02-12 17:35:00
12:55 PM,58.5,25.9,29,29.96,10.0,West,3.5,-,N/A,,Clear,280,2013-02-12 17:55:00
1:35 PM,59.4,25.2,27,29.91,10.0,NNW,3.5,-,N/A,,Clear,340,2013-02-12 18:35:00
1:55 PM,60.3,25.5,27,29.88,10.0,Calm,Calm,-,N/A,,Clear,0,2013-02-12 18:55:00
2:15 PM,59.9,25.5,27,29.86,10.0,North,4.6,-,N/A,,Clear,350,2013-02-12 19:15:00
2:35 PM,60.1,25.0,26,29.91,10.0,WSW,4.6,-,N/A,,Clear,240,2013-02-12 19:35:00
2:55 PM,60.1,25.7,27,29.92,10.0,SW,5.8,-,N/A,,Clear,220,2013-02-12 19:55:00
3:15 PM,59.9,26.6,28,29.94,10.0,SW,13.8,-,N/A,,Clear,220,2013-02-12 20:15:00
3:35 PM,59.2,25.7,28,29.94,10.0,South,10.4,18.4,N/A,,Clear,180,2013-02-12 20:35:00
3:55 PM,59.2,25.5,28,29.93,10.0,SSW,6.9,-,N/A,,Clear,200,2013-02-12 20:55:00
4:35 PM,56.7,27.0,32,29.92,10.0,SSW,10.4,-,N/A,,Clear,210,2013-02-12 21:35:00
4:55 PM,55.8,26.8,33,29.93,10.0,SSW,5.8,-,N/A,,Clear,210,2013-02-12 21:55:00
5:35 PM,54.0,27.3,36,29.94,10.0,SSW,5.8,-,N/A,,Clear,210,2013-02-12 22:35:00
5:55 PM,53.8,28.0,37,29.94,10.0,SW,3.5,-,N/A,,Clear,220,2013-02-12 22:55:00
6:15 PM,51.3,28.9,42,29.94,10.0,Calm,Calm,-,N/A,,Clear,0,2013-02-12 23:15:00
6:35 PM,50.7,29.3,44,29.94,10.0,Calm,Calm,-,N/A,,Clear,0,2013-02-12 23:35:00
6:55 PM,47.7,31.6,54,29.93,10.0,Calm,Calm,-,N/A,,Clear,0,2013-02-12 23:55:00
7:15 PM,45.9,32.9,61,29.92,10.0,Calm,Calm,-,N/A,,Clear,0,2013-02-13 00:15:00
7:35 PM,44.8,33.4,64,29.92,10.0,SSE,3.5,-,N/A,,Clear,150,2013-02-13 00:35:00
7:55 PM,44.4,34.2,67,29.90,10.0,SE,3.5,-,N/A,,Clear,140,2013-02-13 00:55:00
8:15 PM,45.3,32.4,61,29.90,10.0,Calm,Calm,-,N/A,,Clear,0,2013-02-13 01:15:00
8:55 PM,44.4,32.9,64,29.92,10.0,Calm,Calm,-,N/A,,Clear,0,2013-02-13 01:55:00
9:15 PM,43.3,33.4,68,29.92,10.0,NNW,3.5,-,N/A,,Clear,330,2013-02-13 02:15:00
9:35 PM,42.8,33.8,70,29.93,10.0,NW,3.5,-,N/A,,Clear,320,2013-02-13 02:35:00
9:55 PM,43.2,33.4,69,29.94,10.0,Calm,Calm,-,N/A,,Clear,0,2013-02-13 02:55:00
10:15 PM,42.8,34.0,71,29.93,10.0,Calm,Calm,-,N/A,,Clear,0,2013-02-13 03:15:00
10:35 PM,42.6,33.3,69,29.92,10.0,Calm,Calm,-,N/A,,Clear,0,2013-02-13 03:35:00
10:55 PM,42.1,32.9,70,29.93,10.0,Calm,Calm,-,N/A,,Clear,0,2013-02-13 03:55:00
11:15 PM,42.1,32.9,70,29.92,10.0,North,3.5,-,N/A,,Clear,350,2013-02-13 04:15:00
11:35 PM,41.7,33.4,72,29.93,10.0,North,3.5,-,N/A,,Clear,350,2013-02-13 04:35:00